FW6370 Weather Reports


time (UTC)temp
C
wind
direction
speed
KPH
gust
KPH
rain 1hr
cm
rain 24hr
cm
rain mn
cm
humidity
%
barometer
mb
20260505173015 21 321 3.2 16.1 0.00 0.00 0.00 51 1015.9
20260505172015 21 320 3.2 16.1 0.00 0.00 0.00 52 1016.1
20260505171036 21 329 3.2 12.9 0.00 0.00 0.00 53 1016.2
20260505170020 20 325 3.2 12.9 0.00 0.00 0.00 56 1016.2
20260505165015 20 2 3.2 9.7 0.00 0.00 0.00 55 1016.4
20260505164015 20 330 3.2 11.3 0.00 0.00 0.00 56 1016.3
20260505163015 20 340 1.6 11.3 0.00 0.00 0.00 56 1016.3
20260505162016 20 6 3.2 9.7 0.00 0.00 0.00 54 1016.3
20260505161015 20 346 3.2 8.0 0.00 0.00 0.00 56 1016.3
20260505153016 17 328 3.2 8.0 0.00 0.00 0.00 71 1016.2
20260505152016 16 65 1.6 8.0 0.00 0.00 0.00 74 1016.2
20260505151017 16 73 1.6 8.0 0.00 0.00 0.00 74 1016.3
20260505125016 9 0.0 0.0 0.00 0.00 0.00 89 1015.7
20260505124016 9 0.0 0.0 0.00 0.00 0.00 89 1015.9
20260505123036 8 0.0 0.0 0.00 0.00 0.00 89 1015.6
20260505122016 8 0.0 0.0 0.00 0.00 0.00 90 1015.7
20260505121016 8 0.0 0.0 0.00 0.00 0.00 91 1015.7
20260505120016 8 0.0 0.0 0.00 0.00 0.00 90 1015.5
20260505115016 8 0.0 0.0 0.00 0.00 0.00 90 1015.5
20260505114016 8 0.0 0.0 0.00 0.00 0.00 89 1015.5
20260505113016 8 0.0 0.0 0.00 0.00 0.00 89 1015.5
20260505112017 8 0.0 0.0 0.00 0.00 0.00 89 1015.5
20260505111016 8 0.0 0.0 0.00 0.00 0.00 89 1015.4
20260505102015 8 0.0 0.0 0.00 0.00 0.00 90 1015.7
20260505101016 8 0.0 0.0 0.00 0.00 0.00 89 1015.6
20260505100016 8 0.0 0.0 0.00 0.00 0.00 88 1016.0
20260505095016 8 0.0 0.0 0.00 0.00 0.00 88 1016.1
20260505094036 8 0.0 0.0 0.00 0.00 0.00 90 1016.0
20260505093016 8 0.0 0.0 0.00 0.00 0.00 90 1016.0
20260505092016 8 0.0 0.0 0.00 0.00 0.00 90 1016.1
20260505091020 8 0.0 0.0 0.00 0.00 0.00 90 1016.1
20260505090016 8 0.0 0.0 0.00 0.00 0.00 90 1016.1
20260505085016 8 0.0 0.0 0.00 0.00 0.00 89 1016.0
20260505084016 8 0.0 0.0 0.00 0.00 0.00 89 1016.0
20260505083016 8 0.0 0.0 0.00 0.00 0.00 89 1016.1
20260505082016 8 0.0 0.0 0.00 0.00 0.00 88 1016.2
20260505081055 8 0.0 0.0 0.00 0.00 0.00 87 1016.0
20260505080016 9 0.0 0.0 0.00 0.00 0.00 87 1016.0
20260505075015 9 0.0 0.0 0.00 0.00 0.00 88 1016.1
20260505074036 8 0.0 0.0 0.00 0.00 0.00 89 1015.9
20260505073035 8 0.0 0.0 0.00 0.00 0.00 88 1015.9
20260505072015 8 0.0 0.0 0.00 0.00 0.00 88 1015.9
20260505071035 8 0.0 0.0 0.00 0.00 0.00 87 1016.0
20260505070015 9 0.0 0.0 0.00 0.00 0.00 87 1016.0
20260505065015 9 0.0 0.0 0.00 0.00 0.00 87 1016.0
20260505064015 9 0.0 0.0 0.00 0.00 0.00 87 1016.0
20260505063015 9 0.0 0.0 0.00 0.00 0.00 88 1016.1
20260505062016 9 0.0 0.0 0.00 0.00 0.00 87 1016.0
20260505061016 9 0.0 0.0 0.00 0.00 0.00 87 1016.0
20260505060015 9 0.0 0.0 0.00 0.00 0.00 87 1016.1
20260505055015 9 0.0 0.0 0.00 0.00 0.00 87 1016.1
20260505054136 10 0.0 0.0 0.00 0.00 0.00 87 1016.2
20260505053015 10 0.0 0.0 0.00 0.00 0.00 88 1016.1
20260505052036 10 0.0 0.0 0.00 0.00 0.00 87 1016.1
20260505051015 10 0.0 0.0 0.00 0.00 0.00 87 1016.2
20260505041056 11 0.0 0.0 0.00 0.00 0.00 84 1015.8
20260505040015 11 0.0 0.0 0.00 0.00 0.00 84 1015.7
20260505035016 11 0.0 1.6 0.00 0.00 0.00 83 1015.5
20260505034036 11 99 0.0 3.2 0.00 0.00 0.00 83 1015.3
20260505033016 11 99 0.0 3.2 0.00 0.00 0.00 82 1015.3
20260505032016 11 99 0.0 3.2 0.00 0.00 0.00 82 1015.4
20260505031017 11 99 0.0 3.2 0.00 0.00 0.00 81 1015.4
20260505030017 12 100 0.0 3.2 0.00 0.00 0.00 81 1015.4
20260505025016 12 100 0.0 1.6 0.00 0.00 0.00 80 1015.3
20260505024016 12 0.0 1.6 0.00 0.00 0.00 79 1015.4
20260505023016 12 100 0.0 1.6 0.00 0.00 0.00 80 1015.3
20260505022016 12 100 0.0 1.6 0.00 0.00 0.00 79 1015.3
20260505021016 13 100 0.0 1.6 0.00 0.00 0.00 78 1015.1
20260505020015 13 0.0 0.0 0.00 0.00 0.00 77 1015.0
20260505015015 13 0.0 0.0 0.00 0.00 0.00 76 1014.9
20260505014016 14 0.0 0.0 0.00 0.00 0.00 75 1014.8
20260505013016 14 0.0 0.0 0.00 0.00 0.00 74 1014.7
20260505012036 15 0.0 1.6 0.00 0.00 0.00 72 1014.5
20260505011021 15 100 0.0 1.6 0.00 0.00 0.00 72 1014.4
20260505010016 16 100 0.0 1.6 0.00 0.00 0.00 70 1014.3
20260505005015 16 100 0.0 1.6 0.00 0.00 0.00 71 1014.1
20260505004016 16 100 0.0 4.8 0.00 0.00 0.00 71 1014.0
20260505003015 17 100 0.0 4.8 0.00 0.00 0.00 68 1014.0
20260505002015 17 100 1.6 4.8 0.00 0.00 0.00 67 1013.9
20260505001015 17 100 3.2 4.8 0.00 0.00 0.00 67 1013.9
20260505000016 18 65 1.6 4.8 0.00 0.00 0.00 66 1013.8
20260504235056 18 35 1.6 8.0 0.00 0.00 0.00 65 1013.8
20260504234016 19 53 0.0 8.0 0.00 0.00 0.00 65 1013.8
20260504233015 19 56 1.6 8.0 0.00 0.00 0.00 63 1013.9
20260504232015 20 62 0.0 3.2 0.00 0.00 0.00 62 1013.9
20260504231016 20 62 0.0 4.8 0.00 0.00 0.00 60 1014.0
20260504230015 21 20 1.6 4.8 0.00 0.00 0.00 58 1014.0
20260504225015 21 299 1.6 9.7 0.00 0.00 0.00 55 1014.2
20260504224015 21 343 1.6 9.7 0.00 0.00 0.00 54 1014.3
20260504223015 21 59 1.6 8.0 0.00 0.00 0.00 52 1014.3
20260504222036 21 350 1.6 8.0 0.00 0.00 0.00 51 1014.2
20260504221015 21 324 1.6 6.4 0.00 0.00 0.00 50 1014.2
20260504220020 22 333 1.6 11.3 0.00 0.00 0.00 49 1014.3
20260504215015 22 357 1.6 11.3 0.00 0.00 0.00 47 1014.4
20260504214015 22 318 1.6 8.0 0.00 0.00 0.00 48 1014.4
20260504213015 22 345 3.2 8.0 0.00 0.00 0.00 45 1014.4
20260504212036 22 326 3.2 8.0 0.00 0.00 0.00 45 1014.4
20260504211036 22 330 3.2 9.7 0.00 0.00 0.00 45 1014.5
20260504210015 22 339 3.2 11.3 0.00 0.00 0.00 44 1014.5
20260504205015 22 358 3.2 14.5 0.00 0.00 0.00 43 1014.6
20260504204015 23 339 3.2 14.5 0.00 0.00 0.00 43 1014.8
20260504203015 23 2 3.2 12.9 0.00 0.00 0.00 42 1014.9
20260504202016 23 357 4.8 11.3 0.00 0.00 0.00 40 1015.0
20260504201015 23 343 3.2 11.3 0.00 0.00 0.00 40 1015.2
20260504200014 22 333 3.2 11.3 0.00 0.00 0.00 41 1015.2
20260504195018 22 339 4.8 9.7 0.00 0.00 0.00 41 1015.3
20260504194015 22 329 3.2 11.3 0.00 0.00 0.00 41 1015.4
20260504193017 22 336 3.2 11.3 0.00 0.00 0.00 43 1015.5
20260504192017 22 329 3.2 11.3 0.00 0.00 0.00 44 1015.7
20260504191017 23 341 3.2 8.0 0.00 0.00 0.00 46 1015.9
20260504190016 23 350 3.2 9.7 0.00 0.00 0.00 45 1016.1
20260504185016 22 332 3.2 9.7 0.00 0.00 0.00 47 1016.2
20260504184017 22 330 4.8 11.3 0.00 0.00 0.00 46 1016.4
20260504183016 22 351 3.2 11.3 0.00 0.00 0.00 42 1016.5
20260504182037 22 322 3.2 6.4 0.00 0.00 0.00 42 1016.6
20260504181057 22 328 3.2 8.0 0.00 0.00 0.00 41 1016.6
20260504180016 22 325 3.2 8.0 0.00 0.00 0.00 43 1016.6
20260504175017 21 330 3.2 8.0 0.00 0.00 0.00 44 1016.7
20260504174016 21 344 3.2 9.7 0.00 0.00 0.00 47 1016.7